Content
SEND FEEDBACK

Daily
Averages
Monthly
Summary
United States of America

ST. LOUIS, MISSOURI


Home > North America > United States > Missouri
Elevation: 535 feet     Latitude: 38 45N     Longitude: 090 22W

WEATHER
 
SELECT A DAY
Number of Records: 201,199;   Date Range: 1/1/95 - 12/17/14
 
SHARE

PRINT THIS DATA

[ ← Previous Day ]
WEATHER ALMANAC - JANUARY 16, 2013
[ Next Day → ]
[ °C ]   °F
Weather ElementAverageHighLow
Temperature28.6 °F42.1 °F (2:54 pm)14 °F (6:54 am)
Dewpoint17.9 °F24.1 °F (11:54 pm)10 °F (6:54 am)
Humidity67 %88 % (1:54 am)40 % (2:54 pm)
Barometer30.13 in30.20 in (1:54 am)30.04 in (1:54 pm)
Wind Speed4.8 mph15 mph (2:54 pm)
Wind Gust18.4 mph (1:54 pm)
Weather ElementAverage
Visibility9.8 mi
Wind DirectionSSE (151.3 °)

Weather ElementTotal
Precipitation---
Heating Degree Days37 (Base 65)
Averaged from 23 records on January 16, 2013
WEATHER CONDITIONS BREAKOUT
WIND DIRECTION BREAKOUT
WEATHER BY HOUR - JANUARY 16, 2013
[ °C ]   °F
Local TimeTemperatureDewpointHumidityBarometerVisibilityWind DirectionWind SpeedGust SpeedPrecipitationEventsConditions
1:54 AM19.0 °F16.0 °F88 %30.20 in9.0 miWSW (250°)4.6 mphClear
2:54 AM17.1 °F14.0 °F88 %30.19 in9.0 miWSW (250°)3.5 mphClear
3:54 AM17.1 °F14.0 °F88 %30.18 in9.0 miCalmClear
4:54 AM17.1 °F12.9 °F84 %30.16 in9.0 miCalmClear
5:54 AM16.0 °F12.0 °F84 %30.15 in10.0 miCalmClear
6:54 AM14.0 °F10.0 °F84 %30.17 in10.0 miCalmClear
7:54 AM16.0 °F12.0 °F84 %30.18 in9.0 miCalmClear
8:54 AM24.1 °F18.0 °F77 %30.17 in10.0 miCalmClear
9:54 AM28.9 °F17.1 °F61 %30.16 in10.0 miWSW (250°)10.4 mphClear
10:54 AM32.0 °F15.1 °F50 %30.13 in10.0 miSW (230°)8.1 mphPartly Cloudy
11:54 AM35.1 °F18.0 °F50 %30.11 in10.0 miWest (260°)9.2 mphClear
12:54 PM39.2 °F19.4 °F45 %30.05 in10.0 miWest (270°)8.1 mphClear
1:54 PM41.0 °F19.4 °F42 %30.04 in10.0 miWSW (240°)11.5 mph18.4 mphClear
2:54 PM42.1 °F19.0 °F40 %30.06 in10.0 miWSW (250°)15.0 mphPartly Cloudy
3:54 PM41.0 °F19.9 °F43 %30.07 in10.0 miWSW (250°)11.5 mphClear
4:54 PM37.9 °F21.0 °F51 %30.09 in10.0 miWSW (240°)9.2 mphClear
5:54 PM35.1 °F19.9 °F54 %30.11 in10.0 miWest (280°)4.6 mphClear
6:54 PM33.1 °F23.0 °F66 %30.13 in10.0 miWSW (250°)4.6 mphOvercast
7:54 PM33.1 °F21.9 °F64 %30.14 in10.0 miCalmScattered Clouds
8:54 PM28.9 °F21.9 °F75 %30.14 in10.0 miWSW (250°)5.8 mphClear
9:54 PM30.0 °F21.9 °F72 %30.14 in10.0 miSSW (210°)4.6 mphClear
10:54 PM28.9 °F21.9 °F75 %30.14 in10.0 miCalmClear
11:54 PM30.9 °F24.1 °F76 %30.15 in10.0 miCalmOvercast
Hourly data recorded from KSUS, located miles away from St. Louis, Missouri







STORIES FROM OUR PARTNERS